Powrót do katalogu

LILIUM-4

AktywnyKrótkofalarstwoSSO
NORAD 71922·PAYLOAD·🇹🇼 Taiwan

Wystrzelony Mar 30, 2026 z Vandenberg Space Force Base

Loading…

Następne Przeloty (najbliższe 24 godziny)

TLE

NieaktualneSource: AMSAT

Epoka: Mar 30, 2026, 12:01 UTC

1 71922C 26067AC  26089.50133053 -.00014632  00000 0 -74472-3 0    04
2 71922  97.4497  49.1617 0004341   5.9603 355.7042 15.16896692    16

Śledź LILIUM-4 w czasie rzeczywistym z AllMySat

Download on the App Store